User: anonymous   Login
Location: Albany
(35.0000°S, 118.0000°E)
Time: 05:23:50
(UTC-04:00)
Language:

CZ-4B R/B - Orbit

View from above orbital plane
View from above orbital plane
View from above satellite
View from above satellite

Ground track
Ground track

The orbit data is extracted from the following two-line orbital elements,

1 33410U 08053C   15087.88506228  .00007398  00000-0  56668-3 0  9998
2 33410 097.6233 061.5422 0127118 033.8396 327.0856 14.95871458349374
Epoch (UTC): 28 March 2015 21:14:29
Eccentricity: 0.0127118
inclination: 97.6233°
perigee height: 491 km
apogee height: 668 km
right ascension of ascending node: 61.5422°
argument of perigee: 33.8396°
revolutions per day: 14.95871458
mean anomaly at epoch: 327.0856°
orbit number at epoch: 34937

The dashed part of the orbit path shows where the satellite is in the earth's shadow,  

DLR